Location: Rounton
(54.4000°N, 1.3500°W)
Time: 07:19:20
(UTC+00:00)

Vanguard 3 - Pass Details

Date: 01 December 2021
Orbit: 508 x 3260 km, 33.3° (Epoch: 16 January)

Event Time Altitude Azimuth Distance (km) Brightness Sun altitude
Rises 08:03:13 0° 257° (WSW) 6,972 11.5 -0.9°
Reaches altitude 10° 08:09:20 10° 247° (WSW) 5,633 11.2 -0.2°
Maximum altitude 08:21:01 26° 201° (SSW) 3,579 10.7 1.1°
Drops below altitude 10° 08:29:12 10° 150° (SSE) 3,835 12.3 2.0°
Sets 08:32:25 0° 138° (SE) 4,438 14.3 2.3°
